GW7165 Weather Reports


time (UTC)temp
C
wind
direction
speed
KPH
gust
KPH
rain 1hr
cm
rain 24hr
cm
rain mn
cm
humidity
%
barometer
mb
20260506070935 16 103 0.0 0.0 0.00 0.00 0.00 78 1008.8
20260506070432 16 86 6.4 9.7 0.00 0.00 0.00 78 1008.9
20260506062410 17 267 3.2 3.2 0.00 0.00 0.00 78 1008.6
20260506061906 17 22 4.8 8.0 0.00 0.00 0.00 78 1008.5
20260506061402 17 327 3.2 8.0 0.00 0.00 0.00 78 1008.6
20260506060900 17 35 9.7 11.3 0.00 0.00 0.00 78 1008.6
20260506060358 17 82 6.4 12.9 0.00 0.00 0.00 78 1008.6
20260506051330 18 9 1.6 3.2 0.00 0.00 0.00 77 1008.8
20260506050828 18 357 4.8 8.0 0.00 0.00 0.00 76 1008.7
20260506050325 18 87 3.2 3.2 0.00 0.00 0.00 76 1008.5
20260506044815 18 342 1.6 4.8 0.00 0.00 0.00 77 1008.6
20260506044313 19 56 4.8 8.0 0.00 0.00 0.00 77 1008.2
20260506043810 19 31 11.3 14.5 0.00 0.00 0.00 76 1008.6
20260506043307 20 318 4.8 9.7 0.00 0.00 0.00 76 1008.5
20260506042806 20 251 3.2 4.8 0.00 0.00 0.00 76 1008.5
20260506042305 20 269 4.8 8.0 0.00 0.00 0.00 75 1008.0
20260506041803 20 1 8.0 12.9 0.00 0.00 0.00 75 1008.5
20260506041259 20 76 3.2 4.8 0.00 0.00 0.00 74 1008.6
20260506040756 20 143 0.0 1.6 0.00 0.00 0.00 74 1008.2
20260506040254 20 106 0.0 0.0 0.00 0.00 0.00 74 1007.9
20260506035750 20 47 3.2 3.2 0.00 0.00 0.00 74 1007.9
20260506035247 20 44 0.0 1.6 0.00 0.00 0.00 74 1007.4
20260506034744 20 58 1.6 1.6 0.00 0.00 0.00 73 1007.4
20260506034241 20 10 9.7 12.9 0.00 0.00 0.00 73 1007.6
20260506033738 20 354 8.0 9.7 0.00 0.00 0.00 73 1007.6
20260506033236 20 292 3.2 3.2 0.00 0.00 0.00 73 1007.4
20260506032732 21 345 11.3 16.1 0.00 0.00 0.00 72 1007.4
20260506032229 21 246 3.2 4.8 0.00 0.00 0.00 72 1007.3
20260506031726 21 328 4.8 9.7 0.00 0.00 0.00 71 1007.1
20260506031223 21 150 0.0 1.6 0.00 0.00 0.00 71 1007.3
20260506030721 21 125 1.6 3.2 0.00 0.00 0.00 70 1007.2
20260506030219 21 161 0.0 1.6 0.00 0.00 0.00 70 1006.9
20260506025715 21 344 3.2 4.8 0.00 0.00 0.00 70 1006.8
20260506025212 21 356 8.0 11.3 0.00 0.00 0.00 69 1007.0
20260506024709 21 248 0.0 0.0 0.00 0.00 0.00 69 1006.9
20260506024205 22 310 6.4 9.7 0.00 0.00 0.00 69 1006.7
20260506023701 22 81 0.0 0.0 0.00 0.00 0.00 69 1006.6
20260506023159 22 281 3.2 8.0 0.00 0.00 0.00 69 1006.3
20260506022656 22 344 0.0 0.0 0.00 0.00 0.00 69 1006.3
20260506022153 22 246 0.0 0.0 0.00 0.00 0.00 68 1006.1
20260506021651 22 45 0.0 1.6 0.00 0.00 0.00 68 1006.1
20260506021148 22 307 1.6 3.2 0.00 0.00 0.00 68 1005.8
20260506020645 23 308 4.8 8.0 0.00 0.00 0.00 68 1005.7
20260506020143 23 252 3.2 3.2 0.00 0.00 0.00 68 1005.1
20260506015640 23 350 6.4 9.7 0.00 0.00 0.00 67 1005.6
20260506015137 23 155 0.0 1.6 0.00 0.00 0.00 67 1005.4
20260506014635 23 68 0.0 1.6 0.00 0.00 0.00 67 1005.3
20260506014130 23 45 1.6 1.6 0.00 0.00 0.00 67 1005.0
20260506013629 23 120 0.0 1.6 0.00 0.00 0.00 67 1005.3
20260506013125 23 315 1.6 4.8 0.00 0.00 0.00 67 1005.2
20260506012621 23 325 6.4 11.3 0.00 0.00 0.00 67 1004.9
20260506012118 24 38 6.4 8.0 0.00 0.00 0.00 66 1004.6
20260506011616 24 343 0.0 1.6 0.00 0.00 0.00 66 1004.8
20260506011112 25 88 0.0 3.2 0.00 0.00 0.00 65 1004.8
20260506010611 25 332 8.0 11.3 0.00 0.00 0.00 64 1005.1
20260506010108 25 27 6.4 8.0 0.00 0.00 0.00 63 1004.6
20260506005605 26 329 4.8 8.0 0.00 0.00 0.00 63 1004.7
20260506005101 26 340 0.0 0.0 0.00 0.00 0.00 63 1004.4
20260506004558 26 60 3.2 3.2 0.00 0.00 0.00 62 1004.5
20260506004055 26 342 3.2 4.8 0.00 0.00 0.00 62 1004.5
20260506003551 26 358 4.8 8.0 0.00 0.00 0.00 62 1004.3
20260506003047 26 32 1.6 4.8 0.00 0.00 0.00 62 1004.5
20260506002543 26 229 1.6 3.2 0.00 0.00 0.00 62 1004.5
20260506002039 27 49 1.6 3.2 0.00 0.00 0.00 61 1004.4
20260506001536 27 329 4.8 9.7 0.00 0.00 0.00 60 1004.2
20260506001033 27 219 3.2 4.8 0.00 0.00 0.00 59 1003.8
20260506000530 27 343 1.6 1.6 0.00 0.00 0.00 59 1004.2
20260506000028 28 230 0.0 1.6 0.00 0.00 0.00 59 1004.2
20260505235526 28 58 0.0 1.6 0.00 0.00 0.00 59 1003.7
20260505235022 28 312 3.2 4.8 0.00 0.00 0.00 58 1003.8
20260505234519 28 355 1.6 3.2 0.00 0.00 0.00 57 1003.7
20260505234016 29 331 4.8 8.0 0.00 0.00 0.00 55 1003.7
20260505233514 30 302 4.8 4.8 0.00 0.00 0.00 53 1003.6
20260505233011 30 187 0.0 0.0 0.00 0.00 0.00 51 1003.3
20260505232509 30 328 0.0 0.0 0.00 0.00 0.00 50 1003.5
20260505232006 30 176 1.6 3.2 0.00 0.00 0.00 50 1003.3
20260505231503 31 293 4.8 8.0 0.00 0.00 0.00 49 1003.3
20260505231001 31 358 6.4 8.0 0.00 0.00 0.00 59 1003.1
20260505230458 31 241 1.6 1.6 0.00 0.00 0.00 59 1003.0
20260505225954 31 162 1.6 3.2 0.00 0.00 0.00 58 1002.6
20260505225452 31 121 0.0 0.0 0.00 0.00 0.00 58 1002.5
20260505224948 32 126 0.0 1.6 0.00 0.00 0.00 57 1002.4
20260505224445 32 143 0.0 0.0 0.00 0.00 0.00 57 1002.2
20260505223942 33 181 0.0 1.6 0.00 0.00 0.00 52 1002.6
20260505223439 33 151 0.0 0.0 0.00 0.00 0.00 49 1002.7
20260505222935 34 145 0.0 0.0 0.00 0.00 0.00 47 1002.4
20260505222431 33 149 0.0 0.0 0.00 0.00 0.00 48 1002.4
20260505221927 33 268 0.0 1.6 0.00 0.00 0.00 48 1002.5
20260505221425 33 173 0.0 0.0 0.00 0.00 0.00 49 1002.5
20260505220922 33 145 0.0 0.0 0.00 0.00 0.00 48 1002.4
20260505220419 33 123 4.8 4.8 0.00 0.00 0.00 49 1002.4
20260505215916 33 161 1.6 3.2 0.00 0.00 0.00 48 1002.4
20260505215414 33 147 0.0 0.0 0.00 0.00 0.00 49 1002.5
20260505214912 33 142 0.0 0.0 0.00 0.00 0.00 50 1002.3
20260505214409 33 147 1.6 3.2 0.00 0.00 0.00 49 1002.6
20260505213907 32 133 0.0 1.6 0.00 0.00 0.00 52 1002.8
20260505213404 33 72 0.0 0.0 0.00 0.00 0.00 50 1002.5
20260505212900 33 129 1.6 3.2 0.00 0.00 0.00 51 1002.5
20260505212357 33 126 0.0 1.6 0.00 0.00 0.00 50 1002.7
20260505211853 32 152 1.6 3.2 0.00 0.00 0.00 52 1002.8
20260505211351 32 204 1.6 4.8 0.00 0.00 0.00 51 1002.8
20260505210847 32 143 1.6 3.2 0.00 0.00 0.00 52 1003.1
20260505210344 32 131 1.6 3.2 0.00 0.00 0.00 53 1002.8
20260505205841 32 143 0.0 0.0 0.00 0.00 0.00 54 1003.2
20260505205340 32 140 1.6 3.2 0.00 0.00 0.00 53 1003.2
20260505204836 32 118 4.8 8.0 0.00 0.00 0.00 53 1003.1
20260505204334 32 204 1.6 1.6 0.00 0.00 0.00 55 1002.8
20260505203831 32 133 0.0 0.0 0.00 0.00 0.00 55 1003.1
20260505203327 32 106 1.6 3.2 0.00 0.00 0.00 55 1003.4
20260505202824 32 133 1.6 3.2 0.00 0.00 0.00 55 1003.2
20260505202320 32 100 1.6 4.8 0.00 0.00 0.00 55 1003.5
20260505201817 32 196 1.6 3.2 0.00 0.00 0.00 54 1003.3
20260505201314 32 164 1.6 8.0 0.00 0.00 0.00 54 1003.7
20260505200813 32 208 3.2 8.0 0.00 0.00 0.00 56 1003.8
20260505200309 31 112 0.0 0.0 0.00 0.00 0.00 56 1003.7
20260505195804 32 333 3.2 4.8 0.00 0.00 0.00 56 1003.8
20260505195305 31 165 0.0 1.6 0.00 0.00 0.00 60 1003.7
20260505194759 32 127 3.2 4.8 0.00 0.00 0.00 58 1003.9
20260505194256 31 184 0.0 1.6 0.00 0.00 0.00 58 1003.9
20260505193757 31 162 4.8 8.0 0.00 0.00 0.00 57 1003.6
20260505193255 31 342 1.6 3.2 0.00 0.00 0.00 59 1003.8
20260505192753 31 158 3.2 8.0 0.00 0.00 0.00 60 1003.8
20260505192250 30 176 0.0 1.6 0.00 0.00 0.00 62 1003.8
20260505191748 31 158 0.0 3.2 0.00 0.00 0.00 62 1003.9
20260505191246 31 103 4.8 9.7 0.00 0.00 0.00 61 1003.8
20260505190742 30 159 1.6 3.2 0.00 0.00 0.00 63 1003.7
20260505190237 30 122 0.0 0.0 0.00 0.00 0.00 62 1003.8
20260505185734 31 205 3.2 8.0 0.00 0.00 0.00 62 1003.7
20260505185231 30 139 8.0 9.7 0.00 0.00 0.00 63 1004.0
20260505184726 30 144 3.2 4.8 0.00 0.00 0.00 63 1003.8
20260505184224 30 127 0.0 0.0 0.00 0.00 0.00 63 1004.1
20260505183720 30 178 1.6 3.2 0.00 0.00 0.00 64 1004.2
20260505183218 30 126 0.0 0.0 0.00 0.00 0.00 62 1003.9
20260505182714 30 240 0.0 1.6 0.00 0.00 0.00 63 1004.0
20260505182211 30 161 4.8 8.0 0.00 0.00 0.00 64 1004.4
20260505181708 29 126 0.0 0.0 0.00 0.00 0.00 66 1004.2
20260505181206 29 230 0.0 0.0 0.00 0.00 0.00 64 1004.2
20260505180701 29 160 6.4 9.7 0.00 0.00 0.00 65 1004.0
20260505180159 30 149 3.2 11.3 0.00 0.00 0.00 65 1004.0
20260505175654 29 304 0.0 1.6 0.00 0.00 0.00 65 1004.3
20260505175151 29 163 0.0 0.0 0.00 0.00 0.00 67 1004.3
20260505174648 29 157 3.2 4.8 0.00 0.00 0.00 66 1004.3
20260505174144 29 208 1.6 1.6 0.00 0.00 0.00 66 1004.3
20260505173641 28 225 3.2 4.8 0.00 0.00 0.00 67 1004.1
20260505173137 28 87 6.4 11.3 0.00 0.00 0.00 66 1004.6
20260505172635 28 213 1.6 3.2 0.00 0.00 0.00 68 1004.5
20260505172132 28 106 3.2 4.8 0.00 0.00 0.00 68 1004.3
20260505171631 28 78 4.8 8.0 0.00 0.00 0.00 67 1004.2
20260505171129 28 118 3.2 9.7 0.00 0.00 0.00 68 1004.2
20260505170626 28 125 3.2 9.7 0.00 0.00 0.00 67 1004.2
20260505170122 28 290 1.6 4.8 0.00 0.00 0.00 66 1004.4
20260505165617 28 210 1.6 3.2 0.00 0.00 0.00 68 1004.3
20260505165114 28 140 4.8 8.0 0.00 0.00 0.00 68 1004.4
20260505164609 27 254 3.2 3.2 0.00 0.00 0.00 70 1004.3
20260505164107 27 176 0.0 1.6 0.00 0.00 0.00 70 1004.1
20260505163606 28 165 8.0 12.9 0.00 0.00 0.00 69 1004.1
20260505163102 27 179 14.5 24.1 0.00 0.00 0.00 70 1004.4
20260505162600 27 50 1.6 1.6 0.00 0.00 0.00 71 1004.2
20260505162058 26 83 1.6 3.2 0.00 0.00 0.00 72 1004.1
20260505161554 27 127 0.0 0.0 0.00 0.00 0.00 72 1004.1
20260505161052 26 126 3.2 8.0 0.00 0.00 0.00 73 1004.1
20260505160549 26 149 11.3 17.7 0.00 0.00 0.00 72 1004.1
20260505153026 25 136 11.3 20.9 0.00 0.00 0.00 76 1004.0
20260505152523 25 153 4.8 9.7 0.00 0.00 0.00 76 1004.1
20260505152018 26 161 1.6 4.8 0.00 0.00 0.00 76 1004.4
20260505151514 25 158 3.2 4.8 0.00 0.00 0.00 75 1004.3
20260505151011 25 259 1.6 3.2 0.00 0.00 0.00 77 1004.2
20260505150508 25 142 0.0 1.6 0.00 0.00 0.00 78 1004.1
20260505140433 23 161 3.2 3.2 0.00 0.00 0.00 83 1003.8
20260505124846 21 169 4.8 8.0 0.00 0.00 0.00 88 1003.5
20260505124343 21 160 6.4 9.7 0.00 0.00 0.00 88 1003.4
20260505123839 21 176 1.6 3.2 0.00 0.00 0.00 89 1003.3
20260505123336 21 182 4.8 8.0 0.00 0.00 0.00 89 1003.2
20260505122832 21 159 6.4 9.7 0.00 0.00 0.00 89 1003.5
20260505122329 21 143 1.6 1.6 0.00 0.00 0.00 89 1003.1
20260505121826 21 218 4.8 4.8 0.00 0.00 0.00 89 1003.2
20260505121323 21 123 6.4 9.7 0.00 0.00 0.00 89 1003.0
20260505120819 21 164 3.2 3.2 0.00 0.00 0.00 90 1002.6
20260505120315 21 208 3.2 3.2 0.00 0.00 0.00 90 1002.6
20260505115814 20 138 3.2 4.8 0.00 0.00 0.00 90 1003.0
20260505115311 20 264 4.8 4.8 0.00 0.00 0.00 90 1003.3
20260505114809 20 279 4.8 4.8 0.00 0.00 0.00 90 1003.3
20260505114305 20 210 3.2 4.8 0.00 0.00 0.00 89 1003.4
20260505113802 20 221 6.4 8.0 0.00 0.00 0.00 90 1002.8
20260505113258 20 134 4.8 4.8 0.00 0.00 0.00 89 1003.1
20260505112754 21 139 3.2 4.8 0.00 0.00 0.00 89 1003.1
20260505112252 21 100 3.2 4.8 0.00 0.00 0.00 89 1003.0
20260505111752 21 169 3.2 3.2 0.00 0.00 0.00 89 1002.8
20260505111248 21 172 6.4 8.0 0.00 0.00 0.00 89 1003.1
20260505110744 21 148 1.6 1.6 0.00 0.00 0.00 89 1003.1
20260505110243 21 160 1.6 3.2 0.00 0.00 0.00 89 1003.2
20260505102218 21 149 4.8 4.8 0.00 0.00 0.00 87 1002.5
20260505101716 21 130 4.8 4.8 0.00 0.00 0.00 87 1002.7
20260505101212 21 145 4.8 4.8 0.00 0.00 0.00 87 1002.8
20260505100708 21 122 4.8 9.7 0.00 0.00 0.00 87 1003.1
20260505100206 21 108 8.0 11.3 0.00 0.00 0.00 87 1002.8
20260505095701 21 155 0.0 0.0 0.00 0.00 0.00 87 1003.2
20260505095159 21 160 3.2 3.2 0.00 0.00 0.00 87 1003.1
20260505094654 21 185 3.2 3.2 0.00 0.00 0.00 87 1003.3
20260505094151 21 167 3.2 3.2 0.00 0.00 0.00 87 1002.8
20260505093648 21 85 3.2 4.8 0.00 0.00 0.00 87 1003.4
20260505093145 21 157 3.2 8.0 0.00 0.00 0.00 87 1003.2
20260505092642 21 148 3.2 3.2 0.00 0.00 0.00 87 1003.3
20260505092141 21 137 1.6 1.6 0.00 0.00 0.00 87 1003.3
20260505091637 21 167 1.6 3.2 0.00 0.00 0.00 87 1003.7
20260505091135 21 188 4.8 4.8 0.00 0.00 0.00 87 1003.7
20260505090632 21 135 3.2 3.2 0.00 0.00 0.00 87 1003.5
20260505090131 21 135 8.0 9.7 0.00 0.00 0.00 87 1003.7
20260505085628 21 211 8.0 14.5 0.00 0.00 0.00 86 1003.7
20260505085126 21 154 8.0 12.9 0.00 0.00 0.00 86 1003.8
20260505084623 21 96 3.2 3.2 0.00 0.00 0.00 86 1003.6
20260505084122 21 123 1.6 3.2 0.00 0.00 0.00 86 1003.3
20260505083619 21 155 1.6 1.6 0.00 0.00 0.00 86 1003.6
20260505083115 21 144 16.1 27.4 0.00 0.00 0.00 86 1003.9
20260505082611 21 155 4.8 8.0 0.00 0.00 0.00 86 1003.7
20260505082108 21 144 6.4 11.3 0.00 0.00 0.00 86 1003.6
20260505081604 21 164 4.8 4.8 0.00 0.00 0.00 86 1003.4
20260505081102 21 152 4.8 8.0 0.00 0.00 0.00 86 1003.4
20260505080557 21 236 6.4 8.0 0.00 0.00 0.00 86 1003.7
20260505080055 21 76 1.6 3.2 0.00 0.00 0.00 85 1003.8
20260505075550 21 170 1.6 3.2 0.00 0.00 0.00 85 1003.7
20260505075047 21 173 6.4 8.0 0.00 0.00 0.00 85 1003.9
20260505074544 21 236 4.8 9.7 0.00 0.00 0.00 85 1004.0
20260505074041 21 131 8.0 9.7 0.00 0.00 0.00 85 1004.0
20260505073539 21 168 12.9 25.7 0.00 0.00 0.00 84 1003.8
20260505073037 22 154 4.8 9.7 0.00 0.00 0.00 84 1003.9
20260505072532 22 185 4.8 4.8 0.00 0.00 0.00 84 1004.0
20260505072029 22 128 6.4 12.9 0.00 0.00 0.00 83 1004.2
20260505071524 22 139 3.2 4.8 0.00 0.00 0.00 83 1004.2
20260505071023 22 148 3.2 4.8 0.00 0.00 0.00 83 1004.2